UAL384 KBAB-PHNL

Flight info

Callsign UAL384
Flight time 5h 10m
Altitude 36000
Route FOT C1415 VESPA 40N30 HELOP A332 AUNTI APACK MAGGI3
Aircraft B772/H-VGDW/C

Departure

Time 2026-04-23 20:20
Airport Beale Air Force Base (KBAB)

Arrival

Time 2026-04-24 01:30
Airport Daniel K. Inouye International Airport (PHNL)
Time Latitude Longitude Altitude Speed Heading
2026-04-23 20:15 39.12354 -121.42202 127 ft 0 kts 251°
2026-04-23 20:16 39.12353 -121.42202 127 ft 0 kts 251°
2026-04-23 20:16 39.12350 -121.42214 127 ft 3 kts 251°
2026-04-23 20:16 39.12339 -121.42256 127 ft 7 kts 251°
2026-04-23 20:16 39.12321 -121.42326 127 ft 10 kts 251°
2026-04-23 20:17 39.12296 -121.42419 127 ft 12 kts 251°
2026-04-23 20:17 39.12267 -121.42530 127 ft 13 kts 249°
2026-04-23 20:17 39.12200 -121.42589 127 ft 11 kts 209°
2026-04-23 20:17 39.12161 -121.42681 127 ft 13 kts 246°
2026-04-23 20:18 39.12137 -121.42765 127 ft 10 kts 251°
2026-04-23 20:18 39.12111 -121.42857 127 ft 12 kts 250°
2026-04-23 20:18 39.12084 -121.42956 127 ft 8 kts 250°
2026-04-23 20:18 39.12086 -121.43003 127 ft 5 kts 323°
2026-04-23 20:19 39.12132 -121.43017 127 ft 6 kts 342°
2026-04-23 20:19 39.12222 -121.43056 127 ft 45 kts 341°
2026-04-23 20:19 39.12783 -121.43299 127 ft 123 kts 341°
2026-04-23 20:19 39.13819 -121.43738 252 ft 180 kts 342°
2026-04-23 20:20 39.14999 -121.44396 1150 ft 187 kts 328°
2026-04-23 20:20 39.15943 -121.45520 2292 ft 189 kts 314°
2026-04-23 20:20 39.16767 -121.46903 3167 ft 202 kts 308°
2026-04-23 20:20 39.17620 -121.48431 3854 ft 220 kts 307°
2026-04-23 20:21 39.18572 -121.50108 4372 ft 242 kts 307°
2026-04-23 20:21 39.19612 -121.51934 4871 ft 261 kts 307°
2026-04-23 20:21 39.20707 -121.53860 5651 ft 269 kts 307°
2026-04-23 20:21 39.21808 -121.55798 6544 ft 272 kts 307°
2026-04-23 20:22 39.22931 -121.57779 7459 ft 276 kts 307°
2026-04-23 20:22 39.24072 -121.59793 8308 ft 280 kts 307°
2026-04-23 20:22 39.25231 -121.61842 9140 ft 285 kts 307°
2026-04-23 20:22 39.26407 -121.63921 9990 ft 287 kts 307°
2026-04-23 20:23 39.27603 -121.66038 10650 ft 299 kts 307°
2026-04-23 20:23 39.28859 -121.68264 11177 ft 314 kts 307°
2026-04-23 20:23 39.30183 -121.70612 11592 ft 333 kts 307°
2026-04-23 20:23 39.31586 -121.73100 11997 ft 352 kts 307°
2026-04-23 20:24 39.33055 -121.75709 12517 ft 366 kts 307°
2026-04-23 20:24 39.34580 -121.78419 13149 ft 377 kts 307°
2026-04-23 20:24 39.36135 -121.81188 13873 ft 384 kts 307°
2026-04-23 20:24 39.37711 -121.84001 14664 ft 388 kts 307°
2026-04-23 20:25 39.39311 -121.86855 15426 ft 393 kts 307°
2026-04-23 20:25 39.40926 -121.89732 16213 ft 397 kts 307°
2026-04-23 20:25 39.42548 -121.92631 16954 ft 400 kts 307°
2026-04-23 20:25 39.44194 -121.95574 17688 ft 404 kts 307°
2026-04-23 20:26 39.45845 -121.98526 18414 ft 407 kts 307°
2026-04-23 20:26 39.47514 -122.01510 19109 ft 411 kts 307°
2026-04-23 20:26 39.49192 -122.04515 19804 ft 414 kts 307°
2026-04-23 20:26 39.50867 -122.07519 20456 ft 417 kts 306°
2026-04-23 20:27 39.52570 -122.10579 21158 ft 420 kts 306°
2026-04-23 20:27 39.54288 -122.13665 21821 ft 423 kts 306°
2026-04-23 20:27 39.56022 -122.16782 22478 ft 427 kts 306°
2026-04-23 20:27 39.57759 -122.19911 23122 ft 430 kts 306°
2026-04-23 20:28 39.59510 -122.23072 23747 ft 433 kts 306°
2026-04-23 20:28 39.61275 -122.26254 24363 ft 436 kts 306°
2026-04-23 20:28 39.63049 -122.29458 25029 ft 438 kts 305°
2026-04-23 20:28 39.64835 -122.32686 25657 ft 440 kts 305°
2026-04-23 20:29 39.66626 -122.35928 26286 ft 443 kts 305°
2026-04-23 20:29 39.68426 -122.39188 26945 ft 445 kts 305°
2026-04-23 20:29 39.70233 -122.42466 27607 ft 447 kts 305°
2026-04-23 20:29 39.72050 -122.45765 28212 ft 450 kts 304°
2026-04-23 20:30 39.73879 -122.49089 28802 ft 453 kts 304°
2026-04-23 20:30 39.77538 -122.55750 29937 ft 458 kts 304°
2026-04-23 20:30 39.79372 -122.59092 30929 ft 447 kts 304°
2026-04-23 20:31 39.81152 -122.62339 32064 ft 435 kts 303°
2026-04-23 20:31 39.82886 -122.65518 33017 ft 427 kts 303°
2026-04-23 20:31 39.84602 -122.68655 33708 ft 423 kts 303°
2026-04-23 20:31 39.86303 -122.71775 34248 ft 422 kts 302°
2026-04-23 20:32 39.88003 -122.74886 34731 ft 421 kts 302°
2026-04-23 20:32 39.89703 -122.77987 35212 ft 421 kts 302°
2026-04-23 20:32 39.91399 -122.81110 35571 ft 423 kts 302°
2026-04-23 20:32 39.93105 -122.84248 35939 ft 424 kts 302°
2026-04-23 20:33 39.94815 -122.87398 36151 ft 429 kts 302°
2026-04-23 20:33 39.96557 -122.90603 36138 ft 437 kts 302°
2026-04-23 20:33 40.00074 -122.97073 36138 ft 441 kts 302°
2026-04-23 20:34 40.03574 -123.03551 36170 ft 432 kts 302°
2026-04-23 20:34 40.07037 -123.09967 36170 ft 432 kts 302°
2026-04-23 20:35 40.10501 -123.16396 36173 ft 433 kts 302°
2026-04-23 20:35 40.13969 -123.22844 36181 ft 433 kts 302°
2026-04-23 20:36 40.17429 -123.29293 36180 ft 434 kts 302°
2026-04-23 20:36 40.20875 -123.35726 36184 ft 434 kts 302°
2026-04-23 20:37 40.24362 -123.42252 36191 ft 434 kts 302°
2026-04-23 20:37 40.27824 -123.48743 36195 ft 434 kts 302°
2026-04-23 20:38 40.31282 -123.55240 36200 ft 435 kts 302°
2026-04-23 20:38 40.34714 -123.61702 36204 ft 435 kts 302°
2026-04-23 20:39 40.38165 -123.68214 36209 ft 435 kts 302°
2026-04-23 20:39 40.41615 -123.74736 36215 ft 435 kts 302°
2026-04-23 20:40 40.45063 -123.81269 36219 ft 435 kts 302°
2026-04-23 20:40 40.48482 -123.87760 36223 ft 435 kts 302°
2026-04-23 20:41 40.51948 -123.94298 36227 ft 436 kts 302°
2026-04-23 20:41 40.55381 -124.00853 36168 ft 432 kts 301°
2026-04-23 20:42 40.57080 -124.04112 35849 ft 432 kts 301°
2026-04-23 20:42 40.58783 -124.07383 35460 ft 434 kts 301°
2026-04-23 20:42 40.60487 -124.10661 35124 ft 434 kts 301°
2026-04-23 20:42 40.61774 -124.13140 34848 ft 434 kts 301°
2026-04-23 20:43 40.63595 -124.16645 34553 ft 433 kts 301°
2026-04-23 20:43 40.65245 -124.19880 34358 ft 432 kts 298°
2026-04-23 20:43 40.66531 -124.23445 34277 ft 429 kts 287°
2026-04-23 20:43 40.67227 -124.27259 34242 ft 429 kts 277°
2026-04-23 20:44 40.67421 -124.35101 34238 ft 429 kts 269°
2026-04-23 20:44 40.67163 -124.42963 34233 ft 429 kts 268°
2026-04-23 20:45 40.66979 -124.50819 34233 ft 430 kts 269°
2026-04-23 20:45 40.66880 -124.57373 34234 ft 430 kts 269°
2026-04-23 20:46 40.66782 -124.65248 34234 ft 430 kts 270°
2026-04-23 20:46 40.66717 -124.74411 34234 ft 431 kts 270°
2026-04-23 20:47 40.66685 -124.81024 34234 ft 431 kts 270°
2026-04-23 20:47 40.66621 -124.88918 34234 ft 431 kts 270°
2026-04-23 20:48 40.66543 -124.96819 34235 ft 432 kts 270°
2026-04-23 20:48 40.66455 -125.04726 34235 ft 432 kts 269°
2026-04-23 20:49 40.66361 -125.12592 34235 ft 432 kts 269°
2026-04-23 20:49 40.66261 -125.20507 34235 ft 433 kts 269°
2026-04-23 20:50 40.66154 -125.28429 34235 ft 433 kts 269°
2026-04-23 20:50 40.66043 -125.36358 34235 ft 433 kts 269°
2026-04-23 20:51 40.65926 -125.44292 34235 ft 433 kts 269°
2026-04-23 20:51 40.65804 -125.52162 34235 ft 433 kts 269°
2026-04-23 20:52 40.65676 -125.60086 34235 ft 433 kts 269°
2026-04-23 20:52 40.65543 -125.68013 34235 ft 433 kts 269°
2026-04-23 20:53 40.65404 -125.75946 34235 ft 433 kts 269°
2026-04-23 20:53 40.65260 -125.83824 34235 ft 433 kts 269°
2026-04-23 20:54 40.65110 -125.91799 34235 ft 433 kts 269°
2026-04-23 20:54 40.64956 -125.99683 34236 ft 434 kts 269°
2026-04-23 20:55 40.64795 -126.07633 34236 ft 434 kts 268°
2026-04-23 20:55 40.64629 -126.15579 34236 ft 434 kts 268°
2026-04-23 20:56 40.64457 -126.23521 34236 ft 434 kts 268°
2026-04-23 20:56 40.64280 -126.31468 34236 ft 434 kts 268°
2026-04-23 20:57 40.64097 -126.39407 34236 ft 434 kts 268°
2026-04-23 20:57 40.63911 -126.47301 34232 ft 434 kts 268°
2026-04-23 20:58 40.63718 -126.55241 34227 ft 434 kts 268°
2026-04-23 20:58 40.63558 -126.63182 34226 ft 434 kts 270°
2026-04-23 20:59 40.64324 -126.71080 34226 ft 435 kts 279°
2026-04-23 20:59 40.64953 -126.78995 34227 ft 435 kts 270°
2026-04-23 21:00 40.64670 -126.86891 34227 ft 435 kts 265°
2026-04-23 21:00 40.64646 -126.90865 34226 ft 435 kts 277°
2026-04-23 21:00 40.65407 -126.94728 34229 ft 437 kts 288°
2026-04-23 21:01 40.66549 -127.02503 34227 ft 435 kts 265°
2026-04-23 21:01 40.65962 -127.06409 34232 ft 436 kts 253°
2026-04-23 21:01 40.64938 -127.10181 34227 ft 437 kts 251°
2026-04-23 21:02 40.62856 -127.17683 34227 ft 436 kts 252°
2026-04-23 21:02 40.61042 -127.25296 34228 ft 436 kts 255°
2026-04-23 21:03 40.59446 -127.33004 34227 ft 436 kts 256°
2026-04-23 21:03 40.57918 -127.40689 34205 ft 436 kts 256°
2026-04-23 21:04 40.56394 -127.48463 34204 ft 436 kts 257°
2026-04-23 21:04 40.54912 -127.56139 34203 ft 436 kts 256°
2026-04-23 21:05 40.53391 -127.63856 34203 ft 436 kts 256°
2026-04-23 21:05 40.51854 -127.71569 34203 ft 436 kts 256°
2026-04-23 21:06 40.50308 -127.79276 34203 ft 436 kts 256°
2026-04-23 21:06 40.48754 -127.86988 34203 ft 437 kts 256°
2026-04-23 21:07 40.47192 -127.94704 34196 ft 437 kts 256°
2026-04-23 21:07 40.45624 -128.02425 34186 ft 437 kts 256°
2026-04-23 21:08 40.44052 -128.10133 34186 ft 437 kts 255°
2026-04-23 21:08 40.42483 -128.17789 34191 ft 438 kts 255°
2026-04-23 21:09 40.40897 -128.25510 34191 ft 438 kts 255°
2026-04-23 21:09 40.39301 -128.33250 34190 ft 438 kts 255°
2026-04-23 21:10 40.37709 -128.40943 34191 ft 438 kts 255°
2026-04-23 21:10 40.36106 -128.48656 34191 ft 438 kts 255°
2026-04-23 21:11 40.34499 -128.56367 34191 ft 438 kts 255°
2026-04-23 21:11 40.32884 -128.64081 34191 ft 439 kts 255°
2026-04-23 21:12 40.31275 -128.71744 34191 ft 439 kts 255°
2026-04-23 21:12 40.29647 -128.79465 34191 ft 440 kts 255°
2026-04-23 21:13 40.28010 -128.87201 34191 ft 441 kts 255°
2026-04-23 21:13 40.26363 -128.94955 34191 ft 441 kts 255°
2026-04-23 21:14 40.24722 -129.02660 34192 ft 442 kts 255°
2026-04-23 21:14 40.23064 -129.10409 34192 ft 443 kts 255°
2026-04-23 21:15 40.21397 -129.18177 34192 ft 444 kts 255°
2026-04-23 21:15 40.19720 -129.25960 34192 ft 444 kts 255°
2026-04-23 21:16 40.18036 -129.33749 34193 ft 445 kts 255°
2026-04-23 21:16 40.16343 -129.41553 34192 ft 446 kts 255°
2026-04-23 21:17 40.14643 -129.49362 34193 ft 447 kts 255°
2026-04-23 21:17 40.12943 -129.57141 34193 ft 448 kts 254°
2026-04-23 21:18 40.11250 -129.64980 34193 ft 448 kts 255°
2026-04-23 21:18 40.09539 -129.72821 34194 ft 449 kts 254°
2026-04-23 21:19 40.07797 -129.80652 34194 ft 449 kts 254°
2026-04-23 21:19 40.06044 -129.88499 34194 ft 450 kts 254°
2026-04-23 21:20 40.04293 -129.96330 34194 ft 450 kts 254°
2026-04-23 21:20 40.02405 -130.04109 34196 ft 450 kts 250°
2026-04-23 21:21 40.00004 -130.11661 34195 ft 450 kts 247°
2026-04-23 21:21 39.97436 -130.19053 34195 ft 450 kts 246°
2026-04-23 21:22 39.94867 -130.26555 34196 ft 450 kts 247°
2026-04-23 21:22 39.92341 -130.34026 34196 ft 450 kts 247°
2026-04-23 21:23 39.89847 -130.41430 34196 ft 449 kts 247°
2026-04-23 21:23 39.87380 -130.48916 34196 ft 449 kts 248°
2026-04-23 21:24 39.84915 -130.56393 34197 ft 449 kts 247°
2026-04-23 21:24 39.82435 -130.63837 34197 ft 448 kts 247°
2026-04-23 21:25 39.79950 -130.71255 34197 ft 448 kts 247°
2026-04-23 21:25 39.77453 -130.78680 34197 ft 448 kts 247°
2026-04-23 21:26 39.74952 -130.86090 34198 ft 447 kts 247°
2026-04-23 21:26 39.72450 -130.93483 34198 ft 447 kts 247°
2026-04-23 21:27 39.69945 -131.00867 34198 ft 447 kts 246°
2026-04-23 21:27 39.67435 -131.08242 34199 ft 447 kts 246°
2026-04-23 21:28 39.64933 -131.15579 34199 ft 447 kts 246°
2026-04-23 21:28 39.62414 -131.22944 34199 ft 447 kts 246°
2026-04-23 21:29 39.60307 -131.29090 34199 ft 448 kts 246°
2026-04-23 21:29 39.57770 -131.36471 34200 ft 448 kts 246°
2026-04-23 21:30 39.55229 -131.43849 34200 ft 448 kts 246°
2026-04-23 21:30 39.52681 -131.51228 34200 ft 448 kts 246°
2026-04-23 21:31 39.50135 -131.58582 34201 ft 448 kts 246°
2026-04-23 21:31 39.47582 -131.65935 34201 ft 448 kts 246°
2026-04-23 21:32 39.45037 -131.73247 34202 ft 449 kts 246°
2026-04-23 21:32 39.42468 -131.80609 34207 ft 449 kts 246°
2026-04-23 21:33 39.39894 -131.87968 34213 ft 449 kts 246°
2026-04-23 21:33 39.37321 -131.95306 34213 ft 448 kts 246°
2026-04-23 21:34 39.34741 -132.02644 34213 ft 448 kts 246°
2026-04-23 21:34 39.32151 -132.09993 34214 ft 449 kts 246°
2026-04-23 21:35 39.29560 -132.17325 34210 ft 449 kts 246°
2026-04-23 21:35 39.26967 -132.24644 34209 ft 449 kts 246°
2026-04-23 21:36 39.23087 -132.35564 34210 ft 449 kts 246°
2026-04-23 21:37 39.20479 -132.42880 34210 ft 449 kts 246°
2026-04-23 21:37 39.17867 -132.50189 34210 ft 448 kts 245°
2026-04-23 21:38 39.15250 -132.57493 34210 ft 448 kts 245°
2026-04-23 21:38 39.12632 -132.64785 34211 ft 447 kts 245°
2026-04-23 21:39 39.10017 -132.72048 34211 ft 447 kts 245°
2026-04-23 21:39 39.07411 -132.79268 34211 ft 447 kts 245°
2026-04-23 21:40 39.04784 -132.86531 34212 ft 447 kts 245°
2026-04-23 21:40 39.02148 -132.93798 34212 ft 447 kts 245°
2026-04-23 21:41 38.99516 -133.01037 34213 ft 447 kts 245°
2026-04-23 21:41 38.96874 -133.08287 34213 ft 447 kts 245°
2026-04-23 21:42 38.94227 -133.15531 34217 ft 447 kts 245°
2026-04-23 21:42 38.91578 -133.22764 34218 ft 447 kts 245°
2026-04-23 21:43 38.88941 -133.29947 34218 ft 447 kts 245°
2026-04-23 21:43 38.86281 -133.37174 34219 ft 447 kts 245°
2026-04-23 21:44 38.83624 -133.44377 34219 ft 447 kts 245°
2026-04-23 21:44 38.80961 -133.51578 34219 ft 446 kts 245°
2026-04-23 21:45 38.78295 -133.58769 34220 ft 446 kts 245°
2026-04-23 21:45 38.75626 -133.65954 34214 ft 446 kts 245°
2026-04-23 21:46 38.72952 -133.73133 34213 ft 446 kts 245°
2026-04-23 21:46 38.70296 -133.80245 34213 ft 445 kts 244°
2026-04-23 21:47 38.67616 -133.87405 34227 ft 446 kts 244°
2026-04-23 21:47 38.64932 -133.94561 34225 ft 445 kts 244°
2026-04-23 21:48 38.62251 -134.01691 34224 ft 445 kts 244°
2026-04-23 21:48 38.59559 -134.08832 34225 ft 445 kts 244°
2026-04-23 21:49 38.56884 -134.15914 34225 ft 445 kts 244°
2026-04-23 21:49 38.54186 -134.23040 34225 ft 445 kts 244°
2026-04-23 21:50 38.51481 -134.30166 34225 ft 445 kts 244°
2026-04-23 21:50 38.48774 -134.37278 34226 ft 445 kts 244°
2026-04-23 21:51 38.46061 -134.44393 34226 ft 445 kts 244°
2026-04-23 21:51 38.43346 -134.51496 34226 ft 445 kts 244°
2026-04-23 21:52 38.40628 -134.58591 34226 ft 445 kts 244°
2026-04-23 21:52 38.37916 -134.65653 34227 ft 446 kts 244°
2026-04-23 21:53 38.35182 -134.72754 34227 ft 446 kts 244°
2026-04-23 21:53 38.32425 -134.79901 34228 ft 447 kts 244°
2026-04-23 21:54 38.29674 -134.87015 34228 ft 447 kts 244°
2026-04-23 21:54 38.26942 -134.94062 34228 ft 448 kts 244°
2026-04-23 21:55 38.24178 -135.01178 34229 ft 449 kts 244°
2026-04-23 21:55 38.21405 -135.08298 34229 ft 449 kts 244°
2026-04-23 21:56 38.18628 -135.15414 34225 ft 449 kts 243°
2026-04-23 21:56 38.15843 -135.22532 34217 ft 450 kts 243°
2026-04-23 21:57 38.13054 -135.29645 34220 ft 450 kts 243°
2026-04-23 21:57 38.10252 -135.36775 34215 ft 451 kts 243°
2026-04-23 21:58 38.07449 -135.43890 34223 ft 451 kts 243°
2026-04-23 21:58 38.04657 -135.50960 34223 ft 451 kts 243°
2026-04-23 21:59 38.01843 -135.58071 34224 ft 452 kts 243°
2026-04-23 21:59 37.98811 -135.65071 34223 ft 453 kts 236°
2026-04-23 22:00 37.93132 -135.74638 34223 ft 453 kts 232°
2026-04-23 22:00 37.89425 -135.81086 34218 ft 452 kts 237°
2026-04-23 22:01 37.86178 -135.87910 34218 ft 452 kts 241°
2026-04-23 22:01 37.83272 -135.94971 34218 ft 452 kts 243°
2026-04-23 22:02 37.80487 -136.02052 34218 ft 452 kts 243°
2026-04-23 22:02 37.77654 -136.09166 34219 ft 453 kts 243°
2026-04-23 22:03 37.74800 -136.16271 34219 ft 453 kts 243°
2026-04-23 22:03 37.71937 -136.23365 34219 ft 453 kts 243°
2026-04-23 22:04 37.69067 -136.30453 34219 ft 453 kts 243°
2026-04-23 22:04 37.66187 -136.37546 34219 ft 454 kts 243°
2026-04-23 22:05 37.63300 -136.44640 34220 ft 455 kts 243°
2026-04-23 22:05 37.60417 -136.51707 34219 ft 455 kts 243°
2026-04-23 22:06 37.57510 -136.58817 34220 ft 457 kts 243°
2026-04-23 22:06 37.54591 -136.65940 34220 ft 457 kts 243°
2026-04-23 22:07 37.51677 -136.73035 34220 ft 458 kts 243°
2026-04-23 22:07 37.48738 -136.80175 34219 ft 459 kts 243°
2026-04-23 22:08 37.45794 -136.87312 34211 ft 460 kts 243°
2026-04-23 22:08 37.42837 -136.94463 34211 ft 460 kts 243°
2026-04-23 22:09 37.39874 -137.01613 34211 ft 461 kts 243°
2026-04-23 22:09 37.36903 -137.08766 34211 ft 462 kts 243°
2026-04-23 22:10 37.33941 -137.15881 34211 ft 462 kts 243°
2026-04-23 22:10 37.30953 -137.23042 34211 ft 462 kts 243°
2026-04-23 22:11 37.27961 -137.30197 34212 ft 463 kts 243°
2026-04-23 22:11 37.24951 -137.37379 34212 ft 464 kts 243°
2026-04-23 22:12 37.21941 -137.44546 34212 ft 464 kts 243°
2026-04-23 22:12 37.18948 -137.51656 34212 ft 464 kts 243°
2026-04-23 22:13 37.15920 -137.58831 34211 ft 464 kts 243°
2026-04-23 22:13 37.12875 -137.66036 34212 ft 464 kts 243°
2026-04-23 22:14 37.10356 -137.71980 34212 ft 465 kts 243°
2026-04-23 22:14 37.07319 -137.79134 34212 ft 465 kts 243°
2026-04-23 22:15 37.04272 -137.86295 34212 ft 465 kts 243°
2026-04-23 22:15 37.01228 -137.93433 34213 ft 465 kts 243°
2026-04-23 22:16 36.98191 -138.00538 34215 ft 466 kts 243°
2026-04-23 22:16 36.95124 -138.07699 34213 ft 468 kts 243°
2026-04-23 22:17 36.92044 -138.14874 34199 ft 468 kts 243°
2026-04-23 22:17 36.88959 -138.22046 34198 ft 468 kts 243°
2026-04-23 22:18 36.85876 -138.29195 34198 ft 468 kts 243°
2026-04-23 22:18 36.82797 -138.36321 34198 ft 468 kts 243°
2026-04-23 22:19 36.79697 -138.43480 34199 ft 468 kts 243°
2026-04-23 22:19 36.76595 -138.50625 34199 ft 468 kts 243°
2026-04-23 22:20 36.73487 -138.57773 34199 ft 469 kts 243°
2026-04-23 22:20 36.70375 -138.64911 34199 ft 469 kts 243°
2026-04-23 22:21 36.67254 -138.72056 34199 ft 469 kts 243°
2026-04-23 22:21 36.64128 -138.79197 34199 ft 469 kts 243°
2026-04-23 22:22 36.61018 -138.86283 34205 ft 469 kts 243°
2026-04-23 22:22 36.57885 -138.93410 34206 ft 469 kts 243°
2026-04-23 22:23 36.54749 -139.00525 34206 ft 470 kts 243°
2026-04-23 22:23 36.51595 -139.07666 34207 ft 470 kts 243°
2026-04-23 22:24 36.48442 -139.14790 34207 ft 470 kts 243°
2026-04-23 22:24 36.45289 -139.21900 34206 ft 471 kts 243°
2026-04-23 22:25 36.42139 -139.28987 34206 ft 471 kts 243°
2026-04-23 22:25 36.38966 -139.36111 34207 ft 471 kts 243°
2026-04-23 22:26 36.35782 -139.43243 34207 ft 472 kts 243°
2026-04-23 22:26 36.32595 -139.50367 34207 ft 472 kts 243°
2026-04-23 22:27 36.29401 -139.57492 34206 ft 473 kts 243°
2026-04-23 22:27 36.26218 -139.64576 34203 ft 473 kts 243°
2026-04-23 22:28 36.23011 -139.71701 34174 ft 473 kts 243°
2026-04-23 22:28 36.19796 -139.78825 34167 ft 474 kts 243°
2026-04-23 22:29 36.16572 -139.85957 34167 ft 474 kts 243°
2026-04-23 22:29 36.13340 -139.93088 34167 ft 474 kts 243°
2026-04-23 22:30 36.10108 -140.00206 34175 ft 474 kts 243°
2026-04-23 22:30 36.06890 -140.07278 34175 ft 474 kts 243°
2026-04-23 22:31 36.03652 -140.14380 34175 ft 474 kts 243°
2026-04-23 22:31 36.00401 -140.21493 34175 ft 474 kts 243°
2026-04-23 22:32 35.97171 -140.28546 34175 ft 474 kts 243°
2026-04-23 22:32 35.93918 -140.35635 34175 ft 474 kts 243°
2026-04-23 22:33 35.90659 -140.42722 34175 ft 473 kts 243°
2026-04-23 22:33 35.87404 -140.49785 34175 ft 473 kts 243°
2026-04-23 22:34 35.84174 -140.56781 34175 ft 473 kts 243°
2026-04-23 22:34 35.80918 -140.63814 34176 ft 472 kts 243°
2026-04-23 22:35 35.77664 -140.70834 34175 ft 471 kts 243°
2026-04-23 22:35 35.74406 -140.77843 34177 ft 471 kts 243°
2026-04-23 22:36 35.71146 -140.84846 34175 ft 471 kts 243°
2026-04-23 22:36 35.67890 -140.91824 34175 ft 470 kts 243°
2026-04-23 22:37 35.64641 -140.98773 34175 ft 470 kts 243°
2026-04-23 22:37 35.61375 -141.05745 34175 ft 469 kts 243°
2026-04-23 22:38 35.58112 -141.12693 34175 ft 469 kts 243°
2026-04-23 22:38 35.54852 -141.19625 34175 ft 468 kts 243°
2026-04-23 22:39 35.51584 -141.26558 34175 ft 468 kts 243°
2026-04-23 22:39 35.48319 -141.33470 34175 ft 468 kts 243°
2026-04-23 22:40 35.45066 -141.40344 34176 ft 469 kts 242°
2026-04-23 22:41 35.40154 -141.50696 34175 ft 468 kts 242°
2026-04-23 22:41 35.36877 -141.57586 34175 ft 468 kts 242°
2026-04-23 22:42 35.33591 -141.64481 34175 ft 468 kts 242°
2026-04-23 22:42 35.30308 -141.71356 34175 ft 468 kts 242°
2026-04-23 22:43 35.27017 -141.78233 34177 ft 468 kts 242°
2026-04-23 22:43 35.23727 -141.85096 34177 ft 467 kts 242°
2026-04-23 22:44 35.20435 -141.91949 34179 ft 467 kts 242°
2026-04-23 22:44 35.17162 -141.98747 34179 ft 467 kts 242°
2026-04-23 22:45 35.13886 -142.05603 34173 ft 466 kts 242°
2026-04-23 22:45 35.10593 -142.12420 34169 ft 466 kts 242°
2026-04-23 22:46 35.07284 -142.19229 34169 ft 466 kts 242°
2026-04-23 22:46 35.03976 -142.26028 34169 ft 465 kts 242°
2026-04-23 22:47 35.00685 -142.32766 34167 ft 466 kts 241°
2026-04-23 22:47 34.96906 -142.39228 34165 ft 468 kts 235°
2026-04-23 22:48 34.92749 -142.45347 34165 ft 469 kts 232°
2026-04-23 22:48 34.88539 -142.51407 34164 ft 468 kts 233°
2026-04-23 22:49 34.84371 -142.57508 34167 ft 468 kts 233°
2026-04-23 22:49 34.80227 -142.63614 34168 ft 468 kts 233°
2026-04-23 22:50 34.76102 -142.69743 34168 ft 467 kts 234°
2026-04-23 22:50 34.72023 -142.75840 34167 ft 467 kts 234°
2026-04-23 22:51 34.67910 -142.81948 34133 ft 467 kts 234°
2026-04-23 22:51 34.63783 -142.88057 34116 ft 467 kts 234°
2026-04-23 22:52 34.59652 -142.94154 34115 ft 467 kts 233°
2026-04-23 22:52 34.55525 -143.00233 34115 ft 467 kts 233°
2026-04-23 22:53 34.51411 -143.06282 34115 ft 467 kts 233°
2026-04-23 22:53 34.47273 -143.12356 34115 ft 467 kts 233°
2026-04-23 22:54 34.43136 -143.18418 34115 ft 466 kts 233°
2026-04-23 22:54 34.38998 -143.24469 34115 ft 466 kts 233°
2026-04-23 22:55 34.34858 -143.30515 34115 ft 466 kts 233°
2026-04-23 22:55 34.30715 -143.36554 34115 ft 466 kts 233°
2026-04-23 22:56 34.26591 -143.42556 34115 ft 466 kts 233°
2026-04-23 22:56 34.22420 -143.48613 34115 ft 466 kts 233°
2026-04-23 22:57 34.18298 -143.54592 34115 ft 466 kts 233°
2026-04-23 22:57 34.14141 -143.60611 34115 ft 465 kts 233°
2026-04-23 22:58 34.09998 -143.66600 34114 ft 465 kts 233°
2026-04-23 22:58 34.05845 -143.72592 34115 ft 465 kts 233°
2026-04-23 22:59 34.01692 -143.78575 34115 ft 465 kts 233°
2026-04-23 22:59 33.98239 -143.83541 34115 ft 465 kts 233°
2026-04-23 23:00 33.93408 -143.90478 34115 ft 465 kts 233°
2026-04-23 23:00 33.89248 -143.96441 34115 ft 465 kts 233°
2026-04-23 23:01 33.85784 -144.01398 34114 ft 465 kts 233°
2026-04-23 23:01 33.81623 -144.07344 34114 ft 465 kts 233°
2026-04-23 23:02 33.77452 -144.13295 34115 ft 464 kts 233°
2026-04-23 23:02 33.73283 -144.19233 34115 ft 464 kts 233°
2026-04-23 23:03 33.69111 -144.25164 34115 ft 464 kts 233°
2026-04-23 23:03 33.64972 -144.31041 34114 ft 464 kts 233°
2026-04-23 23:04 33.60805 -144.36946 34121 ft 463 kts 233°
2026-04-23 23:04 33.56628 -144.42857 34126 ft 463 kts 233°
2026-04-23 23:05 33.52455 -144.48752 34126 ft 463 kts 232°
2026-04-23 23:05 33.48311 -144.54596 34126 ft 462 kts 232°
2026-04-23 23:06 33.44143 -144.60465 34126 ft 462 kts 232°
2026-04-23 23:06 33.39968 -144.66334 34126 ft 462 kts 232°
2026-04-23 23:07 33.35796 -144.72189 34126 ft 461 kts 232°
2026-04-23 23:07 33.31632 -144.78024 34115 ft 461 kts 232°
2026-04-23 23:08 33.27481 -144.83831 34113 ft 461 kts 232°
2026-04-23 23:08 33.23310 -144.89657 34113 ft 461 kts 232°
2026-04-23 23:09 33.19131 -144.95484 34113 ft 461 kts 232°
2026-04-23 23:09 33.14957 -145.01295 34113 ft 461 kts 232°
2026-04-23 23:10 33.10784 -145.07095 34113 ft 461 kts 232°
2026-04-23 23:10 33.06608 -145.12892 34113 ft 461 kts 232°
2026-04-23 23:11 33.02425 -145.18686 34113 ft 461 kts 232°
2026-04-23 23:11 32.98239 -145.24478 34113 ft 461 kts 232°
2026-04-23 23:12 32.94078 -145.30226 34113 ft 461 kts 232°
2026-04-23 23:12 32.89891 -145.36000 34113 ft 460 kts 232°
2026-04-23 23:13 32.85697 -145.41775 34113 ft 461 kts 231°
2026-04-23 23:13 32.81504 -145.47538 34113 ft 460 kts 231°
2026-04-23 23:14 32.77305 -145.53301 34112 ft 460 kts 231°
2026-04-23 23:14 32.73115 -145.59043 34115 ft 460 kts 231°
2026-04-23 23:15 32.68946 -145.64748 34113 ft 460 kts 231°
2026-04-23 23:15 32.64741 -145.70492 34112 ft 460 kts 231°
2026-04-23 23:16 32.60544 -145.76217 34113 ft 460 kts 231°
2026-04-23 23:16 32.56340 -145.81943 34113 ft 459 kts 231°
2026-04-23 23:17 32.52138 -145.87655 34113 ft 459 kts 231°
2026-04-23 23:17 32.47939 -145.93357 34113 ft 459 kts 231°
2026-04-23 23:18 32.43732 -145.99059 34112 ft 460 kts 231°
2026-04-23 23:18 32.39521 -146.04759 34111 ft 461 kts 231°
2026-04-23 23:19 32.35296 -146.10467 34111 ft 461 kts 231°
2026-04-23 23:19 32.31094 -146.16138 34111 ft 461 kts 231°
2026-04-23 23:20 32.26864 -146.21836 34111 ft 461 kts 230°
2026-04-23 23:20 32.22631 -146.27531 34111 ft 461 kts 230°
2026-04-23 23:21 32.18392 -146.33224 34111 ft 461 kts 230°
2026-04-23 23:21 32.14162 -146.38896 34111 ft 461 kts 230°
2026-04-23 23:22 32.09909 -146.44592 34111 ft 461 kts 230°
2026-04-23 23:22 32.05684 -146.50240 34112 ft 462 kts 231°
2026-04-23 23:23 32.01430 -146.55918 34112 ft 463 kts 230°
2026-04-23 23:23 31.97161 -146.61610 34111 ft 463 kts 230°
2026-04-23 23:24 31.92897 -146.67284 34111 ft 462 kts 230°
2026-04-23 23:24 31.88631 -146.72952 34111 ft 462 kts 230°
2026-04-23 23:25 31.84391 -146.78578 34111 ft 463 kts 230°
2026-04-23 23:25 31.80109 -146.84251 34112 ft 464 kts 230°
2026-04-23 23:26 31.75815 -146.89931 34112 ft 465 kts 230°
2026-04-23 23:26 31.71514 -146.95613 34112 ft 465 kts 230°
2026-04-23 23:27 31.67204 -147.01297 34112 ft 466 kts 230°
2026-04-23 23:27 31.62880 -147.06991 34112 ft 466 kts 230°
2026-04-23 23:28 31.58582 -147.12642 34112 ft 467 kts 230°
2026-04-23 23:28 31.54219 -147.18370 34112 ft 468 kts 230°
2026-04-23 23:29 31.49908 -147.24021 34112 ft 468 kts 230°
2026-04-23 23:29 31.45556 -147.29717 34112 ft 469 kts 230°
2026-04-23 23:30 31.41201 -147.35409 34112 ft 469 kts 230°
2026-04-23 23:30 31.36840 -147.41100 34112 ft 469 kts 230°
2026-04-23 23:31 31.32481 -147.46781 34112 ft 469 kts 230°
2026-04-23 23:31 31.28110 -147.52467 34112 ft 470 kts 230°
2026-04-23 23:32 31.23735 -147.58149 34110 ft 470 kts 230°
2026-04-23 23:32 31.19393 -147.63783 34112 ft 469 kts 230°
2026-04-23 23:33 31.15017 -147.69451 34114 ft 469 kts 230°
2026-04-23 23:33 31.10641 -147.75110 34114 ft 469 kts 230°
2026-04-23 23:34 31.06270 -147.80756 34114 ft 469 kts 230°
2026-04-23 23:34 31.01891 -147.86402 34114 ft 469 kts 230°
2026-04-23 23:35 30.97519 -147.92032 34114 ft 469 kts 230°
2026-04-23 23:35 30.93135 -147.97667 34114 ft 468 kts 230°
2026-04-23 23:36 30.88747 -148.03300 34114 ft 470 kts 231°
2026-04-23 23:36 30.84352 -148.08934 34115 ft 475 kts 231°
2026-04-23 23:37 30.79911 -148.14620 34115 ft 474 kts 231°
2026-04-23 23:37 30.75476 -148.20288 34115 ft 473 kts 231°
2026-04-23 23:38 30.71051 -148.25936 34115 ft 473 kts 231°
2026-04-23 23:38 30.66603 -148.31604 34115 ft 473 kts 231°
2026-04-23 23:39 30.62202 -148.37205 34115 ft 473 kts 231°
2026-04-23 23:39 30.57762 -148.42847 34115 ft 473 kts 231°
2026-04-23 23:40 30.53321 -148.48481 34115 ft 473 kts 231°
2026-04-23 23:40 30.48881 -148.54107 34115 ft 473 kts 231°
2026-04-23 23:41 30.44435 -148.59732 34115 ft 473 kts 231°
2026-04-23 23:41 30.39978 -148.65363 34115 ft 474 kts 231°
2026-04-23 23:42 30.35517 -148.70990 34115 ft 474 kts 231°
2026-04-23 23:42 30.31810 -148.75661 34116 ft 474 kts 231°
2026-04-23 23:43 30.26609 -148.82210 34115 ft 475 kts 231°
2026-04-23 23:43 30.22861 -148.86947 34116 ft 476 kts 231°
2026-04-23 23:44 30.18397 -148.92542 34116 ft 477 kts 231°
2026-04-23 23:44 30.13881 -148.98187 34116 ft 478 kts 231°
2026-04-23 23:45 30.09365 -149.03827 34116 ft 478 kts 231°
2026-04-23 23:45 30.04842 -149.09472 34116 ft 479 kts 232°
2026-04-23 23:46 30.00322 -149.15103 34116 ft 480 kts 232°
2026-04-23 23:46 29.95802 -149.20721 34116 ft 476 kts 232°
2026-04-23 23:47 29.91296 -149.26313 34116 ft 476 kts 232°
2026-04-23 23:47 29.86772 -149.31919 34115 ft 477 kts 232°
2026-04-23 23:48 29.77795 -149.43079 34119 ft 478 kts 233°
2026-04-23 23:49 29.71027 -149.51489 34119 ft 479 kts 232°
2026-04-23 23:49 29.66483 -149.57111 34119 ft 479 kts 232°
2026-04-23 23:50 29.61938 -149.62722 34119 ft 479 kts 232°
2026-04-23 23:50 29.57382 -149.68335 34118 ft 480 kts 232°
2026-04-23 23:51 29.52831 -149.73937 34145 ft 479 kts 232°
2026-04-23 23:51 29.48276 -149.79534 34145 ft 479 kts 232°
2026-04-23 23:52 29.43751 -149.85086 34145 ft 479 kts 232°
2026-04-23 23:52 29.39210 -149.90651 34145 ft 478 kts 232°
2026-04-23 23:53 29.34656 -149.96224 34145 ft 478 kts 232°
2026-04-23 23:53 29.30104 -150.01786 34145 ft 477 kts 232°
2026-04-23 23:54 29.25554 -150.07338 34145 ft 478 kts 232°
2026-04-23 23:54 29.21007 -150.12877 34145 ft 477 kts 233°
2026-04-23 23:55 29.16495 -150.18368 34145 ft 476 kts 233°
2026-04-23 23:55 29.11965 -150.23873 34145 ft 475 kts 232°
2026-04-23 23:56 29.07430 -150.29375 34145 ft 475 kts 232°
2026-04-23 23:56 29.02904 -150.34860 34145 ft 474 kts 233°
2026-04-23 23:57 28.98370 -150.40347 34139 ft 474 kts 233°
2026-04-23 23:57 28.93880 -150.45774 34121 ft 473 kts 232°
2026-04-23 23:58 28.89368 -150.51218 34104 ft 472 kts 232°
2026-04-23 23:58 28.84844 -150.56670 34104 ft 472 kts 233°
2026-04-23 23:59 28.80331 -150.62102 34105 ft 471 kts 233°
2026-04-23 23:59 28.75826 -150.67517 34105 ft 471 kts 232°
2026-04-24 00:00 28.71312 -150.72935 34105 ft 470 kts 232°
2026-04-24 00:00 28.66802 -150.78342 34106 ft 470 kts 232°
2026-04-24 00:01 28.62324 -150.83703 34106 ft 470 kts 232°
2026-04-24 00:01 28.57823 -150.89084 34106 ft 470 kts 232°
2026-04-24 00:02 28.53310 -150.94473 34106 ft 470 kts 232°
2026-04-24 00:02 28.48799 -150.99851 34106 ft 470 kts 232°
2026-04-24 00:03 28.44314 -151.05192 34106 ft 469 kts 232°
2026-04-24 00:03 28.39798 -151.10563 34107 ft 469 kts 232°
2026-04-24 00:04 28.35290 -151.15917 34107 ft 469 kts 232°
2026-04-24 00:04 28.30774 -151.21274 34107 ft 469 kts 232°
2026-04-24 00:05 28.26293 -151.26581 34108 ft 468 kts 232°
2026-04-24 00:05 28.21787 -151.31913 34108 ft 468 kts 232°
2026-04-24 00:06 28.17271 -151.37248 34108 ft 468 kts 232°
2026-04-24 00:06 28.12750 -151.42583 34109 ft 468 kts 232°
2026-04-24 00:07 28.08238 -151.47900 34098 ft 467 kts 232°
2026-04-24 00:07 28.03732 -151.53202 34091 ft 467 kts 232°
2026-04-24 00:08 27.99222 -151.58503 34092 ft 467 kts 232°
2026-04-24 00:08 27.94741 -151.63764 34091 ft 466 kts 232°
2026-04-24 00:09 27.90245 -151.69035 34092 ft 466 kts 232°
2026-04-24 00:09 27.85731 -151.74321 34092 ft 466 kts 232°
2026-04-24 00:10 27.81253 -151.79557 34092 ft 467 kts 232°
2026-04-24 00:10 27.76713 -151.84860 34092 ft 467 kts 232°
2026-04-24 00:11 27.72223 -151.90096 34093 ft 466 kts 232°
2026-04-24 00:11 27.67714 -151.95349 34093 ft 466 kts 232°
2026-04-24 00:12 27.63194 -152.00608 34093 ft 466 kts 232°
2026-04-24 00:12 27.58680 -152.05853 34093 ft 466 kts 232°
2026-04-24 00:13 27.54162 -152.11098 34094 ft 466 kts 232°
2026-04-24 00:13 27.49638 -152.16341 34094 ft 466 kts 232°
2026-04-24 00:14 27.45114 -152.21577 34094 ft 466 kts 232°
2026-04-24 00:14 27.40595 -152.26803 34094 ft 466 kts 232°
2026-04-24 00:15 27.36101 -152.31992 34094 ft 466 kts 232°
2026-04-24 00:15 27.31572 -152.37215 34094 ft 465 kts 231°
2026-04-24 00:16 27.27037 -152.42438 34095 ft 465 kts 231°
2026-04-24 00:16 27.22541 -152.47611 34095 ft 465 kts 231°
2026-04-24 00:17 27.18013 -152.52815 34087 ft 467 kts 231°
2026-04-24 00:17 27.13372 -152.58142 34090 ft 483 kts 230°
2026-04-24 00:18 27.08644 -152.63560 34090 ft 485 kts 230°
2026-04-24 00:18 27.03967 -152.68912 34091 ft 483 kts 230°
2026-04-24 00:19 26.99258 -152.74296 34091 ft 483 kts 230°
2026-04-24 00:19 26.94552 -152.79669 34091 ft 482 kts 230°
2026-04-24 00:20 26.89845 -152.85036 34092 ft 482 kts 230°
2026-04-24 00:20 26.85139 -152.90396 34092 ft 482 kts 230°
2026-04-24 00:21 26.80462 -152.95716 34093 ft 481 kts 230°
2026-04-24 00:21 26.75759 -153.01058 34093 ft 481 kts 230°
2026-04-24 00:22 26.71048 -153.06403 34093 ft 481 kts 230°
2026-04-24 00:22 26.66341 -153.11738 34093 ft 481 kts 230°
2026-04-24 00:23 26.61636 -153.17062 34094 ft 481 kts 230°
2026-04-24 00:23 26.56937 -153.22374 34094 ft 480 kts 230°
2026-04-24 00:24 26.52270 -153.27643 34094 ft 480 kts 230°
2026-04-24 00:24 26.47601 -153.32908 34095 ft 480 kts 230°
2026-04-24 00:25 26.42877 -153.38228 34095 ft 479 kts 230°
2026-04-24 00:25 26.38183 -153.43508 34095 ft 479 kts 230°
2026-04-24 00:26 26.33494 -153.48776 34096 ft 478 kts 230°
2026-04-24 00:26 26.28802 -153.54040 34096 ft 478 kts 230°
2026-04-24 00:27 26.24122 -153.59285 34096 ft 477 kts 229°
2026-04-24 00:27 26.19437 -153.64529 34096 ft 477 kts 229°
2026-04-24 00:28 26.14748 -153.69772 34097 ft 477 kts 229°
2026-04-24 00:28 26.10098 -153.74964 34097 ft 476 kts 229°
2026-04-24 00:29 26.05416 -153.80187 34097 ft 476 kts 229°
2026-04-24 00:29 26.00742 -153.85393 34097 ft 476 kts 229°
2026-04-24 00:30 25.96070 -153.90591 34098 ft 476 kts 229°
2026-04-24 00:30 25.91383 -153.95800 34098 ft 476 kts 229°
2026-04-24 00:31 25.86703 -154.00995 34098 ft 476 kts 229°
2026-04-24 00:31 25.82015 -154.06192 34098 ft 476 kts 229°
2026-04-24 00:32 25.78126 -154.10499 34099 ft 476 kts 229°
2026-04-24 00:32 25.73438 -154.15685 34099 ft 476 kts 229°
2026-04-24 00:33 25.68747 -154.20869 34098 ft 475 kts 229°
2026-04-24 00:33 25.64091 -154.26008 34098 ft 475 kts 229°
2026-04-24 00:34 25.59400 -154.31179 34099 ft 475 kts 229°
2026-04-24 00:34 25.54705 -154.36349 34098 ft 475 kts 229°
2026-04-24 00:35 25.50018 -154.41504 34099 ft 475 kts 229°
2026-04-24 00:35 25.45329 -154.46655 34099 ft 474 kts 229°
2026-04-24 00:36 25.40646 -154.51794 34099 ft 474 kts 229°
2026-04-24 00:36 25.35964 -154.56925 34099 ft 473 kts 229°
2026-04-24 00:37 25.31282 -154.62051 34100 ft 473 kts 229°
2026-04-24 00:37 25.26629 -154.67139 34100 ft 473 kts 229°
2026-04-24 00:38 25.21948 -154.72252 34100 ft 473 kts 229°
2026-04-24 00:38 25.17260 -154.77366 34100 ft 472 kts 229°
2026-04-24 00:39 25.12579 -154.82467 34101 ft 473 kts 229°
2026-04-24 00:39 25.07891 -154.87571 34101 ft 473 kts 229°
2026-04-24 00:40 25.03245 -154.92623 34101 ft 472 kts 229°
2026-04-24 00:40 24.98568 -154.97702 34101 ft 472 kts 229°
2026-04-24 00:41 24.93886 -155.02792 34102 ft 472 kts 229°
2026-04-24 00:41 24.89203 -155.07882 34102 ft 471 kts 229°
2026-04-24 00:42 24.84522 -155.12943 34102 ft 471 kts 229°
2026-04-24 00:42 24.79868 -155.17967 34103 ft 471 kts 229°
2026-04-24 00:43 24.75184 -155.23019 34103 ft 471 kts 229°
2026-04-24 00:43 24.70749 -155.28283 34102 ft 466 kts 236°
2026-04-24 00:44 24.66948 -155.34032 34103 ft 463 kts 240°
2026-04-24 00:44 24.63361 -155.39918 34103 ft 463 kts 240°
2026-04-24 00:45 24.59710 -155.45760 34113 ft 463 kts 239°
2026-04-24 00:45 24.56024 -155.51558 34116 ft 463 kts 239°
2026-04-24 00:46 24.52315 -155.57366 34131 ft 463 kts 239°
2026-04-24 00:46 24.48609 -155.63209 34220 ft 473 kts 239°
2026-04-24 00:47 24.44781 -155.69211 34234 ft 486 kts 239°
2026-04-24 00:47 24.40901 -155.75273 34234 ft 490 kts 239°
2026-04-24 00:48 24.37053 -155.81275 34233 ft 487 kts 239°
2026-04-24 00:48 24.33137 -155.87375 34232 ft 487 kts 239°
2026-04-24 00:49 24.29227 -155.93457 34231 ft 487 kts 239°
2026-04-24 00:49 24.25346 -155.99486 34230 ft 487 kts 239°
2026-04-24 00:50 24.21442 -156.05564 34228 ft 486 kts 239°
2026-04-24 00:50 24.17545 -156.11617 34226 ft 487 kts 239°
2026-04-24 00:51 24.13625 -156.17674 34130 ft 487 kts 239°
2026-04-24 00:51 24.09729 -156.23687 34109 ft 487 kts 238°
2026-04-24 00:52 24.05566 -156.29566 34097 ft 495 kts 228°
2026-04-24 00:52 24.02844 -156.31917 34095 ft 504 kts 217°
2026-04-24 00:52 23.99695 -156.33675 34096 ft 511 kts 206°
2026-04-24 00:53 23.92813 -156.35830 34097 ft 516 kts 197°
2026-04-24 00:53 23.85813 -156.37580 34095 ft 515 kts 198°
2026-04-24 00:54 23.78865 -156.39522 34095 ft 515 kts 199°
2026-04-24 00:54 23.71939 -156.41565 34096 ft 515 kts 200°
2026-04-24 00:55 23.65032 -156.43617 34096 ft 514 kts 200°
2026-04-24 00:55 23.58168 -156.45650 34116 ft 514 kts 200°
2026-04-24 00:56 23.51261 -156.47690 34119 ft 514 kts 200°
2026-04-24 00:56 23.44350 -156.49729 34119 ft 514 kts 200°
2026-04-24 00:57 23.37455 -156.51761 34119 ft 514 kts 200°
2026-04-24 00:58 23.27066 -156.54818 34119 ft 514 kts 200°
2026-04-24 00:58 23.20195 -156.56837 34119 ft 514 kts 199°
2026-04-24 00:59 23.13286 -156.58865 34120 ft 514 kts 200°
2026-04-24 00:59 23.06364 -156.60897 34120 ft 514 kts 200°
2026-04-24 01:00 22.99455 -156.62925 34120 ft 514 kts 199°
2026-04-24 01:00 22.92544 -156.64946 34120 ft 513 kts 199°
2026-04-24 01:01 22.88141 -156.66232 34120 ft 514 kts 199°
2026-04-24 01:01 22.81234 -156.68248 34120 ft 514 kts 199°
2026-04-24 01:02 22.74403 -156.70244 34120 ft 499 kts 200°
2026-04-24 01:02 22.67784 -156.72198 34120 ft 487 kts 200°
2026-04-24 01:03 22.61265 -156.74121 34093 ft 484 kts 200°
2026-04-24 01:03 22.58028 -156.75073 33848 ft 482 kts 200°
2026-04-24 01:03 22.54771 -156.76030 33405 ft 485 kts 200°
2026-04-24 01:03 22.51543 -156.76979 32928 ft 488 kts 200°
2026-04-24 01:04 22.48762 -156.77795 32829 ft 483 kts 200°
2026-04-24 01:04 22.42362 -156.79673 32662 ft 469 kts 200°
2026-04-24 01:04 22.39237 -156.80590 32206 ft 464 kts 199°
2026-04-24 01:05 22.36111 -156.81500 31539 ft 466 kts 199°
2026-04-24 01:05 22.32989 -156.82405 31071 ft 462 kts 199°
2026-04-24 01:05 22.29880 -156.83306 30592 ft 460 kts 199°
2026-04-24 01:05 22.26795 -156.84200 30114 ft 458 kts 199°
2026-04-24 01:06 22.23720 -156.85090 29623 ft 456 kts 198°
2026-04-24 01:06 22.20657 -156.85977 29107 ft 456 kts 198°
2026-04-24 01:06 22.17601 -156.86862 28581 ft 455 kts 198°
2026-04-24 01:06 22.14540 -156.87750 28054 ft 454 kts 198°
2026-04-24 01:07 22.11497 -156.88636 27530 ft 453 kts 198°
2026-04-24 01:07 22.08494 -156.89507 27018 ft 452 kts 198°
2026-04-24 01:07 22.05455 -156.90387 26502 ft 450 kts 198°
2026-04-24 01:07 22.02435 -156.91259 25987 ft 449 kts 197°
2026-04-24 01:08 21.99422 -156.92129 25471 ft 447 kts 197°
2026-04-24 01:08 21.96421 -156.92995 24955 ft 446 kts 197°
2026-04-24 01:08 21.93428 -156.93858 24439 ft 444 kts 197°
2026-04-24 01:08 21.90447 -156.94718 23919 ft 442 kts 197°
2026-04-24 01:09 21.87532 -156.95727 23398 ft 438 kts 204°
2026-04-24 01:09 21.84913 -156.97271 22906 ft 433 kts 216°
2026-04-24 01:09 21.82587 -156.99285 22425 ft 428 kts 223°
2026-04-24 01:09 21.80407 -157.01480 21811 ft 429 kts 226°
2026-04-24 01:10 21.78357 -157.03803 21292 ft 426 kts 230°
2026-04-24 01:10 21.76424 -157.06207 20777 ft 424 kts 232°
2026-04-24 01:10 21.74555 -157.08655 20263 ft 422 kts 233°
2026-04-24 01:10 21.72700 -157.11097 19873 ft 418 kts 233°
2026-04-24 01:11 21.70867 -157.13488 19677 ft 411 kts 232°
2026-04-24 01:11 21.69059 -157.15830 19508 ft 403 kts 232°
2026-04-24 01:11 21.67269 -157.18135 19294 ft 398 kts 232°
2026-04-24 01:11 21.65498 -157.20413 19021 ft 395 kts 232°
2026-04-24 01:12 21.63737 -157.22671 18739 ft 393 kts 232°
2026-04-24 01:12 21.61988 -157.24922 18428 ft 391 kts 233°
2026-04-24 01:12 21.60256 -157.27175 18117 ft 390 kts 233°
2026-04-24 01:12 21.58524 -157.29414 17816 ft 389 kts 232°
2026-04-24 01:13 21.56812 -157.31617 17437 ft 379 kts 232°
2026-04-24 01:13 21.55125 -157.33780 16625 ft 378 kts 232°
2026-04-24 01:13 21.53435 -157.35943 15776 ft 378 kts 232°
2026-04-24 01:13 21.51748 -157.38101 15058 ft 375 kts 232°
2026-04-24 01:14 21.50097 -157.40212 14367 ft 371 kts 232°
2026-04-24 01:14 21.48445 -157.42323 13687 ft 367 kts 232°
2026-04-24 01:14 21.46808 -157.44416 13018 ft 364 kts 232°
2026-04-24 01:14 21.45193 -157.46477 12543 ft 354 kts 232°
2026-04-24 01:15 21.43652 -157.48443 12414 ft 337 kts 232°
2026-04-24 01:15 21.42177 -157.50330 12355 ft 325 kts 232°
2026-04-24 01:15 21.40749 -157.52158 12274 ft 314 kts 232°
2026-04-24 01:15 21.39827 -157.53338 12178 ft 308 kts 232°
2026-04-24 01:16 21.38476 -157.55061 11988 ft 302 kts 232°
2026-04-24 01:16 21.37114 -157.56797 11751 ft 298 kts 232°
2026-04-24 01:16 21.35782 -157.58495 11474 ft 296 kts 232°
2026-04-24 01:16 21.34462 -157.60176 11196 ft 294 kts 232°
2026-04-24 01:17 21.33143 -157.61858 10882 ft 293 kts 231°
2026-04-24 01:17 21.31832 -157.63529 10595 ft 292 kts 231°
2026-04-24 01:17 21.30527 -157.65191 10297 ft 290 kts 231°
2026-04-24 01:17 21.29228 -157.66843 10021 ft 289 kts 231°
2026-04-24 01:18 21.27943 -157.68504 9746 ft 287 kts 234°
2026-04-24 01:18 21.26975 -157.70335 9432 ft 286 kts 248°
2026-04-24 01:18 21.26428 -157.72375 9148 ft 283 kts 258°
2026-04-24 01:18 21.26088 -157.74456 8787 ft 285 kts 262°
2026-04-24 01:19 21.25868 -157.76563 8518 ft 283 kts 265°
2026-04-24 01:19 21.25702 -157.78658 8283 ft 280 kts 265°
2026-04-24 01:19 21.25535 -157.80737 8053 ft 279 kts 265°
2026-04-24 01:19 21.25357 -157.82809 7823 ft 279 kts 265°
2026-04-24 01:20 21.25171 -157.84877 7608 ft 276 kts 265°
2026-04-24 01:20 21.24986 -157.86890 7525 ft 267 kts 265°
2026-04-24 01:20 21.24807 -157.88807 7394 ft 261 kts 265°
2026-04-24 01:20 21.24625 -157.90762 7200 ft 256 kts 265°
2026-04-24 01:21 21.24450 -157.92631 6994 ft 253 kts 265°
2026-04-24 01:21 21.24278 -157.94467 6932 ft 243 kts 265°
2026-04-24 01:21 21.24112 -157.96231 6870 ft 233 kts 265°
2026-04-24 01:21 21.23954 -157.97918 6801 ft 221 kts 265°
2026-04-24 01:22 21.23815 -157.99524 6696 ft 211 kts 266°
2026-04-24 01:22 21.23760 -158.01064 6510 ft 204 kts 269°
2026-04-24 01:22 21.23757 -158.02601 6136 ft 211 kts 271°
2026-04-24 01:22 21.23778 -158.04218 5629 ft 222 kts 271°
2026-04-24 01:23 21.23796 -158.05904 5106 ft 228 kts 271°
2026-04-24 01:23 21.23807 -158.07614 4584 ft 231 kts 271°
2026-04-24 01:23 21.23811 -158.09321 4064 ft 233 kts 271°
2026-04-24 01:23 21.23813 -158.11065 3540 ft 235 kts 271°
2026-04-24 01:24 21.23812 -158.12806 3191 ft 228 kts 271°
2026-04-24 01:24 21.23877 -158.14458 3105 ft 218 kts 281°
2026-04-24 01:24 21.24542 -158.15877 3010 ft 214 kts 314°
2026-04-24 01:24 21.25809 -158.16616 3004 ft 208 kts 347°
2026-04-24 01:25 21.27246 -158.16676 3003 ft 208 kts
2026-04-24 01:25 21.28702 -158.16631 2994 ft 211 kts
2026-04-24 01:25 21.30159 -158.16466 2982 ft 209 kts 17°
2026-04-24 01:25 21.31309 -158.15624 2971 ft 195 kts 49°
2026-04-24 01:26 21.31929 -158.14381 2977 ft 192 kts 67°
2026-04-24 01:26 21.32232 -158.13002 2984 ft 189 kts 79°
2026-04-24 01:26 21.32392 -158.11594 3005 ft 191 kts 83°
2026-04-24 01:26 21.32489 -158.10197 2938 ft 185 kts 85°
2026-04-24 01:27 21.32518 -158.08813 2644 ft 186 kts 88°
2026-04-24 01:27 21.32523 -158.07424 2386 ft 187 kts 89°
2026-04-24 01:27 21.32524 -158.06058 2144 ft 180 kts 89°
2026-04-24 01:27 21.32525 -158.04718 1900 ft 181 kts 89°
2026-04-24 01:28 21.32524 -158.03341 1664 ft 187 kts 90°
2026-04-24 01:28 21.32525 -158.01992 1414 ft 173 kts 90°
2026-04-24 01:28 21.32525 -158.00757 1184 ft 159 kts 90°
2026-04-24 01:28 21.32524 -157.99618 993 ft 146 kts 89°
2026-04-24 01:29 21.32525 -157.98559 822 ft 138 kts 88°
2026-04-24 01:29 21.32525 -157.97554 624 ft 133 kts 88°
2026-04-24 01:29 21.32524 -157.96567 446 ft 132 kts 88°
2026-04-24 01:29 21.32524 -157.95581 281 ft 135 kts 89°
2026-04-24 01:30 21.32524 -157.94556 115 ft 143 kts 89°
2026-04-24 01:30 21.32524 -157.93543 27 ft 110 kts 89°
2026-04-24 01:30 21.32525 -157.93046 27 ft 28 kts 90°
2026-04-24 01:30 21.32527 -157.92988 27 ft 12 kts 84°
2026-04-24 01:31 21.32562 -157.92871 27 ft 17 kts 60°
2026-04-24 01:31 21.32625 -157.92766 27 ft 16 kts 56°
2026-04-24 01:31 21.32686 -157.92667 27 ft 15 kts 57°
2026-04-24 01:31 21.32741 -157.92572 27 ft 14 kts 62°
2026-04-24 01:32 21.32778 -157.92477 27 ft 14 kts 85°
2026-04-24 01:32 21.32778 -157.92379 27 ft 13 kts 90°
2026-04-24 01:32 21.32779 -157.92287 27 ft 12 kts 89°
2026-04-24 01:32 21.32781 -157.92201 27 ft 11 kts 90°
2026-04-24 01:33 21.32781 -157.92119 27 ft 12 kts 90°
2026-04-24 01:33 21.32781 -157.92002 27 ft 19 kts 90°
2026-04-24 01:33 21.32782 -157.91887 27 ft 5 kts 80°
2026-04-24 01:33 21.32810 -157.91869 27 ft 6 kts 359°
2026-04-24 01:34 21.32882 -157.91865 27 ft 15 kts
2026-04-24 01:34 21.32942 -157.91850 27 ft 4 kts 49°
2026-04-24 01:34 21.32950 -157.91815 27 ft 9 kts 78°
2026-04-24 01:34 21.32958 -157.91765 27 ft 1 kts 82°
2026-04-24 01:35 21.32958 -157.91763 27 ft 0 kts 82°